Погода в Бухаре

Погода в Бухаре : погода сейчас, прогноз погоды и архив. Всё, что Вы хотите узнать о погоде в Бухаре!

Поиск расширенной информации на нашем сайте:

Другие новости

Новости СМИ2

Главная страница сайта

Новости сайта

03.07.2017

Напоминаем, что на нашем специализированном сайте Метеоцентр.Азия вы можете получить высокодетализированные автоматические прогнозы погоды по пунктам России, СНГ и мира в авиационном формате (включающие направление и скорость ветра, видимость, явления погоды, количество и форму облачности, нижнюю и верхнюю границу облачности).


Погода в Бухаре - сегодня

Время (UTC), дата Ветер
(°,м/с) 
Видим.   Явления Облачность Т
(°С)
Тd
(°С)
f(%) Тe
(°С)
Pmin
(гПа)
dP
(гПа)
Po
(мм)
O2
(г/м3)
Тmin Tmax R s Состояние
почвы
09 19.07.17 360 (С) 10 км  пыльная буря на расстоянии  ясно 
+35.6 +3.4 13 +36  1008.6  -0.8  738  263           
12 19.07.17 020 (С) 10 км    ясно 
+35.3 +1.9 12 +35  1006.8  -1.8  737  262           
15 19.07.17 360 (С) 10 км    ясно 
+29.5 +8 26 +30  1006.9  -0.3  736  266    +36       
18 19.07.17 360 (С) 10 км    ясно 
+26.2 +3 22 +26  1007.9  0.6  737  270    +36       
21 19.07.17 360 (С) 10 км    ясно 
+25.4 +2.9 23 +25  1007.5  -0.5  736  271           
00 20.07.17 360 (С) 10 км    ясно 
+22.3 +3.8 30 +22  1006.8  -0.9  736  273    +1.9       
03 20.07.17 360 (С) 10 км    ясно 
+25 +6.5 31 +25  1007.1  0.8  736  271           
06 20.07.17 360 (С) 10 км    ясно 
+31.4 +5.3 19 +31  1006.3  -0.3  736  265  +20.7         
09 20.07.17 360 (С) 4000 м  пыльная буря  ясно 
+35.5 +2.9 13 +36  1004.9  -1  735  262           
12 20.07.17 020 (С) 10 км    ясно 
+35.7 +2.5 13 +36    -1.4        91     
15 20.07.17 020 (С) 10 км    ясно 
+30.2 +4.3 19 +30  1003.8  -0.1  734  266    +36       
18 20.07.17 360 (С) 10 км    ясно 
+23.5 +5.3 31 +24  1004.9  0.6  734  272    +36       
21 20.07.17 360 (С) 10 км    ясно 
+23.8 +1.9 24 +24  1004.2  -0.7  734  272           
00 21.07.17 340 (С) 10 км    ясно 
+21.5 +3.4 30 +22  1004.7  0.3  734  274           
03 21.07.17 360 (С) 10 км    ясно 
+24.5 +6.8 32 +25  1004.8  0.4  734  270           
06 21.07.17 020 (С) 10 км    ясно 
+34.5 +8 20 +35  1004.1  0.2  735  261  +21.3         
09 21.07.17 360 (С) 4000 м  пыльная буря  ясно 
+36.4 +3 12 +36  1003.6  -0.5  734  261           
12 21.07.17 360 (С) 10 км    ясно 
+37.1 +3.2 12 +37  1002.8  -0.7  734  260           
15 21.07.17 360 (С) 10 км    ясно 
+31 +5.5 20 +31  1003.4  0.1  734  265    +37.5       
18 21.07.17 360 (С) 10 км    ясно 
+25.4 +4.3 26 +25  1004.8  0.9  734  270    +37.5       
21 21.07.17 340 (С) 10 км    ясно 
+23 +4.6 30 +23  1004.5  -0.5  734  272           
00 22.07.17 360 (С) 10 км    ясно 
+22.4 +4 30 +22  1004.6  0.1  734  273           
03 22.07.17 360 (С) 10 км    ясно 
+26.7 +7.7 30 +27  1005.2  0.7  735  268           
06 22.07.17 360 (С) 10 км    ясно 
+34.5 +6.7 18 +35  1005  0.5  735  262  +21.4         
09 22.07.17 360 (С) 4000 м  пыльная буря  ясно 
+38.5 +4.3 12 +39  1004.5  -0.2  735  259           
Время (UTC), дата Ветер
(°,м/с) 
Видим.   Явления Облачность Т
(°С)
Тd
(°С)
f(%) Тe
(°С)
Pmin
(гПа)
dP
(гПа)
Po
(мм)
O2
(г/м3)
Тmin Tmax R s Состояние
почвы

Для получения пояснительной информации подведите курсор к названию столбца.

ПОГОДА в Бухаре - архив

Всё, что Вы хотите узнать о погоде в Бухаре - удобно и подробно!

Выберите нужную дату (начиная с 1 января 2015* года) и нажмите кнопку "Найти".
Будут отображены архивные сводки погоды по пункту Бухара, начиная с указанной даты.


Отображать данные в формате CSV (для использования в таблицах Excel)


Внимание! Наш архив погоды предназначен исключительно для личного некоммерческого использования в познавательных целях. Если Вам необходимы официальные справки о состоянии погоды (для производственных, юридических, коммерческих и т.п. целей), обращайтесь в органы Росгидромета.

*Примечание: данная дата относится к архиву по метеостанциям СССР (Россия, СНГ, Балтия).
Архив по метеостанциям Зарубежной Европы и Азии (кроме Китая) хранится 10 дней, по другим регионам земного шара (Китай, Африка, Америка, Австралия, Океания) - 1 день.

Бухара - район местоположения метеостанции


Название, широта, долгота, высота метеостанции:
Бухара 39.7°ш. 64.6°д. 226 м над ур. моря [Узбекистан]

Дополнительная информация

В oтличие oт бoльшинства пoгoдных сайтoв мы публикуем пoдрoбную метеoинфoрмацию в детальнoм прoфессиoнальнoм фoрмате.

Характеристики температуры и влажнoсти вoздуха измеряются на высoте 2 м в тени вдали oт зданий и деревьев.
Скoрoсть ветра измеряется на высoте 10 м (на урoвне рoста челoвека скoрoсть ветра ниже в 1.5-2 раза). Если метеoстанция нахoдится в гoрoде или в лесу, тo скoрoсть ветра занижена на 2-4 м/с пo сравнению с oткрытым местoм. Скoрoсть ветра над акватoриями крупных рек и oзёр, а также на вершинах хoлмoв на 2-5 м/с выше, чем в oбычных услoвиях.
Атмoсфернoе давление в разных тoчках местнoсти мoжет значительнo oтличаться oт давления на метеoстанции, в зависимoсти oт услoвий рельефа (при пoдъёме на 10 м давление пoнижается примернo на 1 мм рт.ст.).